Printer-friendly version

IAU Minor Planet Center

Minor Planet Center

MPEC 2008-E89 : 2008 EB32

The following Minor Planet Electronic Circular may be linked-to from your own Web pages, but must not otherwise be redistributed electronically.


Read MPEC 2008-E88 Read MPEC 2008-E90


M.P.E.C. 2008-E89                                Issued 2008 Mar. 11, 16:47 UT

     The Minor Planet Electronic Circulars contain information on unusual
         minor planets and routine data on comets.  They are published
   on behalf of Commission 20 of the International Astronomical Union by the
          Minor Planet Center, Smithsonian Astrophysical Observatory,
                          Cambridge, MA 02138, U.S.A.

             Prepared using the Tamkin Foundation Computer Network

                              MPC@CFA.HARVARD.EDU
          URL http://www.cfa.harvard.edu/iau/mpc.html  ISSN 1523-6714

                                   2008 EB32

Observations:
     K08E32B  C2008 03 10.22217 09 06 53.75 +10 06 04.1          19.9   EE089704
     K08E32B  C2008 03 10.23335 09 06 53.11 +10 06 14.4          20.1   EE089704
     K08E32B  C2008 03 10.24452 09 06 52.41 +10 06 21.8          20.2   EE089704
     K08E32B* C2008 03 10.25110 09 06 52.05 +10 06 26.6          19.9 V EE089G96
     K08E32B  C2008 03 10.25607 09 06 51.71 +10 06 32.1          20.4   EE089704
     K08E32B  C2008 03 10.25935 09 06 51.55 +10 06 33.7          20.0 V EE089G96
     K08E32B  C2008 03 10.26723 09 06 51.00 +10 06 41.1          20.5   EE089704
     K08E32B  C2008 03 10.26772 09 06 51.01 +10 06 40.3          20.3 V EE089G96
     K08E32B  C2008 03 10.27597 09 06 50.50 +10 06 47.4          20.3 V EE089G96
     K08E32B  C2008 03 10.82118 09 06 21.01 +10 14 14.1          19.1 V EE089B03
     K08E32B  C2008 03 10.83608 09 06 20.14 +10 14 26.8          19.5 V EE089B03
     K08E32B  C2008 03 10.85098 09 06 19.27 +10 14 39.5          19.7 V EE089B03
     K08E32B  C2008 03 11.21708 09 05 59.53 +10 19 45.4          20.0 V EE089G96
     K08E32B  C2008 03 11.22450 09 05 59.10 +10 19 51.5          20.0 V EE089G96
     K08E32B  C2008 03 11.23222 09 05 58.63 +10 19 57.9          20.1 V EE089G96
     K08E32B  C2008 03 11.23961 09 05 58.23 +10 20 04.0          20.2 V EE089G96
     K08E32B  C2008 03 11.26379 09 05 56.79 +10 20 23.8          19.9 R EE089854

Observer details:
704 Lincoln Laboratory ETS, New Mexico.  Observers M. Bezpalko, D. Torres,
    R. Kracke, G. Spitz, J. Kistler.  Measurers J. Stuart, S. Scruggs.  1.0-m
    f/2.15 reflector + CCD.
854 Sabino Canyon Observatory, Tucson.  Observer J. E. McGaha.  0.36-m f/10.0
    Schmidt-Cassegrain + CCD.
B03 Alter Satzberg, Vienna.  Observer M. Pietschnig.  0.35-m f/5.8
    Schmidt-Cassegrain + CCD.
G96 Mt. Lemmon Survey.  Observer S. M. Larson.  Measurers E. C. Beshore,
    A. Boattini, G. J. Garradd, A. R. Gibbs, A. D. Grauer, R. E. Hill,
    R. A. Kowalski, S. M. Larson, R. H. McNaught.  1.5-m reflector + CCD.

Orbital elements:
2008 EB32                                                Earth MOID = 0.1583 AU
Epoch 2008 May 14.0 TT = JDT 2454600.5                  MPC
M 354.68533              (2000.0)            P               Q
n   0.25890195     Peri.   47.62438     -0.66680208     +0.74523416
a   2.4380681      Node   180.55792     -0.71073021     -0.63633830
e   0.5300945      Incl.    5.98835     -0.22413734     -0.19924764
P   3.81           H   19.2           G   0.15           U   9
Residuals in seconds of arc
080310 704  0.1-  0.6+    080310 704  0.0   0.6+    080311 G96  0.0   0.1+
080310 704  0.5+  1.7+    080310 G96  0.3-  1.0-    080311 G96  0.2+  0.0
080310 704  0.3+  0.1-    080310 G96  0.4-  0.7-    080311 G96  0.0   0.1+
080310 G96  0.1+  1.1-    080310 B03  0.4-  0.6-    080311 G96  0.5+  0.1+
080310 704  0.4+  0.7+    080310 B03  0.3-  0.2-    080311 854  0.2+  0.0
080310 G96  0.1+  0.8-    080310 B03  0.2-  0.2+

Ephemeris:
2008 EB32                a,e,i = 2.44, 0.53, 6                   q = 1.1457
Date    TT    R. A. (2000) Decl.     Delta      r     Elong.  Phase     V
2008 03 05    09 12.25   +08 54.8    0.572    1.522   152.3    17.7    19.8
2008 03 15    09 02.95   +11 11.7    0.548    1.457   139.9    26.1    19.9
2008 03 25    08 58.55   +13 22.3    0.535    1.395   128.5    34.0    20.0
2008 04 04    09 00.28   +15 15.6    0.529    1.337   118.6    41.1    20.1
2008 04 14    09 08.69   +16 44.0    0.526    1.284   110.3    47.1    20.1
2008 04 24    09 23.66   +17 43.1    0.522    1.238   103.6    52.2    20.2
2008 05 04    09 44.81   +18 09.3    0.516    1.199    98.5    56.3    20.2
2008 05 14    10 11.78   +17 57.5    0.509    1.170    95.0    59.3    20.2
2008 05 24    10 44.02   +17 02.5    0.501    1.152    92.9    61.4    20.2
2008 06 03    11 20.87   +15 18.7    0.494    1.146    92.2    62.2    20.2
2008 06 13    12 01.55   +12 42.6    0.492    1.151    92.9    61.8    20.2
2008 06 23    12 44.81   +09 17.7    0.499    1.168    94.7    60.2    20.2
2008 07 03    13 29.16   +05 15.8    0.517    1.196    97.1    57.5    20.2
2008 07 13    14 13.18   +00 56.7    0.549    1.233    99.6    54.4    20.3
2008 07 23    14 55.58   -03 16.1    0.597    1.279   101.7    51.1    20.5
2008 08 02    15 35.55   -07 04.5    0.662    1.331   103.0    48.0    20.7
2008 08 12    16 12.82   -10 18.0    0.744    1.389   103.4    45.2    21.0
2008 08 22    16 47.37   -12 52.9    0.840    1.450   102.7    42.9    21.3
2008 09 01    17 19.43   -14 51.1    0.951    1.515   101.2    40.8    21.6
2008 09 11    17 49.32   -16 16.1    1.075    1.582    98.8    39.0    21.9

Sonia Keys                   (C) Copyright 2008 MPC           M.P.E.C. 2008-E89

Read MPEC 2008-E88 Read MPEC 2008-E90


Our Web policy. Index to the CBAT/MPC/ICQ pages.


Valid HTML 4.01!